Home   Weather   Port-au-Prince   Past weeks

Flag for Haiti Past Weather in Port-au-Prince, Haiti — Yesterday and Last 2 Weeks

Now
68 °F

Passing clouds.


Feels Like: 68 °F
Forecast: 69 / 89 °F
Wind: 5 mph from Southeast

Location: Santiago

Current Time: Feb 28, 2017 at 4:55:30 am

Latest Report: Feb 28, 2017 at 4:00 am


Visibility: N/A

Pressure: 30.09 "Hg

Humidity: 100%

Dew Point: 68 °F

Location of Port-au-PrinceLocation

Past Weather in Port-au-Prince — Graph

°F

Port-au-Prince Temperature Yesterday

Maximum temperature yesterday: 84 °F (at 2:00 pm)
Minimum temperature yesterday: 64 °F (at 5:00 am)
Average temperature yesterday: 72 °F

High & Low Weather Summary for the Past Weeks

 TemperatureHumidityPressure
High88 °F (Feb 24, 2:00 pm)100% (Feb 13, 3:00 am)30.18 "Hg (Feb 13, 3:00 am)
Low64 °F (Feb 19, 6:00 am)45% (Feb 14, 3:00 pm)29.74 "Hg (Feb 23, 3:00 pm)
Average75 °F78%29.97 "Hg
* Reported Feb 13 3:00 am — Feb 28 3:00 am, Port-au-Prince, Weather by CustomWeather, © 2017

Note: Actual official high and low records may vary slightly from our data, if they occured in-between our weather recording intervals... More about our weather records

Advertising

Port-au-Prince Weather History for the Previous 24 Hours

Scroll right to see more
 ConditionsComfort  
Time TempWeatherWind HumidityBarometerVisibility
3:00 am
Tue, Feb 28
70 °FPassing clouds.3 mph94%30.09 "HgN/A
2:00 am70 °FPassing clouds.6 mph100%30.09 "HgN/A
1:00 am68 °FPassing clouds.No wind100%30.12 "HgN/A
12:00 am70 °FPassing clouds.No wind100%30.15 "HgN/A
11:00 pm
Mon, Feb 27
70 °FPassing clouds.6 mph100%30.15 "HgN/A
10:00 pm70 °FPassing clouds.6 mph94%30.15 "HgN/A
9:00 pm72 °FPassing clouds.6 mph94%30.15 "HgN/A
8:00 pm72 °FPassing clouds.No wind94%30.15 "HgN/A
7:00 pm72 °FLight rain. Passing clouds.6 mph94%30.12 "Hg3 mi
6:00 pm77 °FScattered showers. Passing clouds.8 mph79%30.09 "Hg4 mi
5:00 pm79 °FPartly sunny.13 mph74%30.09 "HgN/A
4:00 pm82 °FScattered clouds.13 mph62%30.04 "HgN/A
3:00 pm82 °FScattered clouds.13 mph58%30.04 "HgN/A
2:00 pm84 °FScattered clouds.10 mph58%30.07 "HgN/A
1:00 pm81 °FBroken clouds.9 mph70%30.09 "HgN/A
12:00 pm77 °FBroken clouds.6 mph89%30.12 "HgN/A
11:00 am72 °FLight rain. Mostly cloudy.No wind94%30.15 "Hg4 mi
10:00 am70 °FLight rain. Mostly cloudy.8 mph100%30.18 "Hg4 mi
9:00 am72 °FHeavy rain. Partly sunny.8 mph88%30.15 "Hg1 mi
8:00 am70 °FBroken clouds.5 mph94%30.12 "HgN/A
7:00 am68 °FScattered clouds.No wind94%30.09 "HgN/A
6:00 am66 °FPassing clouds.No wind94%30.09 "HgN/A
5:00 am64 °FPassing clouds.No wind100%30.07 "HgN/A
4:00 am66 °FPassing clouds.5 mph100%30.04 "HgN/A
Weather by CustomWeather, © 2017

See weather overviewHow to use our weather pages